User: anonymous   Login
Location: Shenandoah County Park
(38.9356°N, 78.4524°W)
Time: 06:21:52
(UTC-05:00)
Language:

ITAMSAT 1 - Orbit

View from above orbital plane
View from above orbital plane
View from above satellite
View from above satellite

Ground track
Ground track

The orbit data is extracted from the following two-line orbital elements,

1 22826U 93061D   24054.13411447  .00000175  00000-0  84325-4 0  9998
2 22826  98.8009 105.4868 0009643  45.9591 314.2383 14.30805460586692
Epoch (UTC): 23 February 2024 03:13:07
Eccentricity: 0.0009643
inclination: 98.8009°
perigee height: 782 km
apogee height: 796 km
right ascension of ascending node: 105.4868°
argument of perigee: 45.9591°
revolutions per day: 14.30805460
mean anomaly at epoch: 314.2383°
orbit number at epoch: 58669

The dashed part of the orbit path shows where the satellite is in the earth's shadow,  

DLR